User: anonymous   Login
Location: PSU-Greenbush Astrophysical Observatory
(37.5140°N, 94.9880°W)
Time: 18:12:21
(UTC-06:00)
Language:

Altair - Orbit

View from above orbital plane
View from above orbital plane
View from above satellite
View from above satellite

Ground track
Ground track

The orbit data is extracted from the following two-line orbital elements,

1 00050U 60009B   21016.58481193 -.00000044  00000-0  38224-3 0  9990
2 00050  47.2288 179.7820 0113458 240.7061 118.2350 12.20114289696241
Epoch (UTC): 16 January 2021 14:02:07
Eccentricity: 0.0113458
inclination: 47.2288°
perigee height: 1501 km
apogee height: 1682 km
right ascension of ascending node: 179.7820°
argument of perigee: 240.7061°
revolutions per day: 12.20114289
mean anomaly at epoch: 118.2350°
orbit number at epoch: 69624

The dashed part of the orbit path shows where the satellite is in the earth's shadow,  

DLR